Wind_Speed
24 24 25 25 25 26 26 26 26 26 27 28 28 29 30 30 30 30 30 30 29 29 29 29 29 29 29 28 28 27 28 28 28 30 27 21 22 23 20 18 16 15 15 15 13 12 11 10 10 11 12 12 14 15 16 19 16 12 13 15 19 21 15 12 10 12 6 8 9 8 7 10 8 9 16 10 13 20 14 13 9 9 9 6 6 6 9 10
25 25 25 25 25 25 26 26 26 26 26 27 28 29 29 29 30 30 30 29 29 29 29 29 29 29 28 29 28 28 28 28 30 31 23 20 25 23 19 18 17 16 16 14 13 12 11 10 10 10 10 12 13 13 14 17 18 17 16 18 22 19 11 6 6 11 6 9 8 11 9 8 8 10 18 13 11 19 16 10 9 10 8 7 9 8 11 11
25 25 25 25 25 25 25 26 25 26 26 27 28 28 28 29 29 29 29 29 29 29 29 29 29 29 29 28 28 29 29 29 32 28 20 22 25 22 20 19 17 17 16 15 14 13 12 12 10 9 11 13 13 12 10 11 14 17 19 21 23 16 9 1 4 9 10 9 9 14 11 5 9 10 14 13 10 15 18 14 12 11 8 9 11 9 11 11
25 25 25 25 25 25 25 25 25 25 26 26 26 27 28 28 28 28 29 29 29 29 28 28 29 29 28 28 28 29 29 29 31 25 21 24 24 22 22 20 18 18 16 16 16 14 15 15 12 8 10 13 12 10 9 9 11 15 19 21 17 14 13 7 5 8 9 11 13 15 12 6 8 9 7 13 13 12 16 17 16 14 10 11 11 11 12 13
26 26 25 25 25 25 25 25 25 26 26 26 26 27 27 27 28 27 28 28 29 28 28 28 29 29 28 28 28 28 28 27 29 26 23 24 25 24 23 21 21 19 18 18 17 15 16 17 15 8 9 12 10 9 10 11 12 15 18 18 13 15 19 10 8 11 7 11 16 13 13 5 7 10 4 13 18 12 11 14 13 12 12 12 12 13 14 14
28 27 26 26 26 25 25 25 25 26 26 26 26 26 26 27 26 27 27 27 28 28 27 28 28 28 28 28 28 29 28 25 24 24 24 25 26 25 24 23 22 21 21 20 19 17 17 17 18 13 11 13 13 12 10 12 14 16 18 19 14 13 14 6 9 11 9 12 16 7 9 6 9 14 4 9 19 12 8 11 13 12 12 11 11 15 14 14
29 28 27 26 26 26 26 26 25 26 26 26 26 26 25 25 25 26 26 27 27 27 27 28 28 28 27 28 29 29 30 27 23 20 21 24 25 25 25 25 23 23 23 21 21 19 18 19 21 19 15 15 16 16 14 14 15 16 18 17 12 11 11 9 9 7 9 13 13 4 5 10 12 14 3 5 15 13 10 11 14 14 13 10 10 14 15 14
30 30 29 28 27 26 26 26 26 26 26 26 26 26 26 24 24 24 25 26 26 27 27 27 28 28 27 29 29 31 32 29 25 22 20 22 24 25 26 26 25 24 23 22 21 19 19 20 21 21 17 17 15 15 15 14 16 18 19 16 15 14 10 12 12 8 7 11 14 8 6 12 13 10 8 8 11 14 12 10 13 16 14 11 10 14 16 15
31 31 30 29 28 27 27 26 26 26 26 26 26 26 26 24 23 23 24 25 25 26 27 27 28 28 29 29 30 34 30 22 23 25 22 21 21 23 24 26 26 25 24 22 21 20 21 22 20 20 18 16 13 13 13 12 17 18 17 15 16 15 7 10 14 15 13 8 13 14 11 15 15 9 10 12 12 15 13 9 10 14 14 11 11 15 16 14
31 31 30 30 29 29 28 27 27 26 26 26 26 26 26 25 23 23 23 23 24 25 26 28 28 28 30 30 33 33 22 16 20 21 22 23 21 21 23 25 27 26 25 23 23 23 22 21 20 19 16 15 14 14 13 13 15 16 16 13 14 15 9 9 12 13 13 6 10 14 11 14 17 12 13 16 15 13 11 8 8 11 13 13 13 15 15 13
31 30 30 30 29 29 28 27 27 27 26 26 25 26 25 25 23 22 23 23 24 24 26 28 28 30 31 32 35 28 16 16 16 12 18 24 24 21 20 24 27 26 26 25 24 22 21 21 20 17 16 17 17 16 17 17 16 16 17 14 13 15 14 12 12 12 8 8 11 11 11 14 17 17 18 19 14 10 8 8 9 10 12 14 14 14 13 11
30 30 30 29 29 29 29 28 27 27 26 26 25 25 25 24 23 23 22 22 23 24 26 27 29 31 31 35 35 22 18 21 19 16 17 23 24 22 19 21 25 26 26 26 25 22 21 21 21 18 16 16 15 13 15 18 19 17 15 15 13 13 17 15 13 15 13 11 11 10 13 13 16 20 20 19 16 12 12 10 10 10 11 12 12 12 11 11
29 29 28 28 28 28 28 28 27 27 26 26 25 24 24 24 24 23 22 22 23 23 25 27 29 31 34 38 31 20 22 24 23 23 23 23 22 22 21 21 22 25 26 26 25 22 21 22 22 21 18 16 15 11 9 12 17 18 12 15 16 13 18 17 13 14 14 13 12 13 16 14 16 20 18 20 21 15 17 16 12 13 12 11 11 10 10 10
29 27 26 26 26 27 27 26 27 26 26 26 25 24 24 24 24 23 22 22 22 23 25 27 30 31 36 36 27 22 27 27 26 27 27 27 24 22 22 21 23 25 26 26 25 23 21 23 23 21 20 19 18 15 12 12 15 17 13 14 18 16 16 16 15 15 13 12 14 16 18 15 16 17 15 20 23 17 19 20 15 15 15 14 13 11 9 9
30 27 27 26 25 25 25 25 25 25 25 25 24 24 24 23 23 22 22 21 22 23 24 27 29 30 36 34 26 24 29 32 32 31 30 30 25 25 24 23 24 24 27 28 27 26 23 24 23 21 21 21 19 19 18 15 14 17 17 16 19 18 16 15 17 18 15 14 16 17 18 16 16 15 16 19 19 19 21 20 16 17 17 16 15 12 10 10
31 29 27 27 25 25 25 24 24 23 23 23 23 24 24 22 21 21 21 20 22 23 24 26 27 31 35 30 25 28 34 37 36 32 31 30 25 25 26 23 23 21 24 28 28 28 24 22 21 20 21 21 20 21 20 18 17 19 20 20 18 17 18 17 20 22 16 16 18 18 18 17 16 17 20 21 17 16 18 19 17 16 17 17 15 12 11 11
33 32 27 27 27 25 24 23 22 22 22 21 22 24 23 21 20 20 20 20 21 22 23 25 28 33 32 24 24 31 35 36 35 32 31 29 23 22 25 23 21 20 19 24 28 28 26 22 20 22 23 22 21 21 21 20 19 20 20 21 19 17 19 19 21 23 17 19 20 19 19 14 16 21 23 21 18 15 15 16 17 17 19 18 15 11 10 11
33 33 29 27 28 26 25 22 20 20 20 20 21 22 22 19 18 18 19 20 22 23 24 26 30 28 21 19 23 23 26 30 31 32 31 30 24 21 26 24 18 18 18 22 29 30 27 24 22 24 26 26 25 24 24 22 19 20 20 22 21 20 23 21 22 24 19 23 21 19 18 8 11 23 23 18 18 17 15 14 16 19 20 16 13 13 11 10
32 33 31 29 27 26 24 21 19 19 19 19 19 20 20 18 17 16 18 20 22 23 22 23 27 23 12 13 15 9 14 21 26 32 32 29 26 23 27 26 19 17 19 23 31 32 27 25 26 29 32 31 30 28 25 22 18 19 19 21 22 22 25 23 23 25 23 26 23 21 19 11 16 22 22 20 18 18 17 17 19 19 18 15 13 13 11 11
32 32 32 30 28 26 22 19 19 18 18 18 18 18 16 15 13 12 15 18 19 19 20 20 23 21 12 12 15 9 8 14 20 28 30 29 27 26 29 29 22 19 23 24 29 31 26 26 31 34 36 32 31 30 24 22 20 19 20 21 20 21 25 23 23 27 27 28 24 21 20 16 19 21 23 23 21 21 21 20 19 17 16 15 13 11 11 12
31 30 31 29 28 27 22 19 17 17 18 17 16 16 14 13 12 11 14 17 17 18 21 22 22 22 19 18 20 17 15 17 17 19 23 28 28 28 32 31 26 24 27 23 25 29 25 30 35 34 34 31 29 29 24 23 25 25 23 22 20 21 22 21 25 30 29 28 26 22 21 21 22 22 22 22 24 25 22 21 18 15 15 14 12 11 12 13
28 28 29 28 26 26 22 18 16 16 16 15 15 14 11 14 15 11 12 15 18 20 21 23 25 25 22 23 23 23 21 20 19 19 19 25 30 31 34 34 30 27 28 24 25 30 29 32 35 32 31 28 25 26 25 25 28 29 26 23 21 21 22 21 24 33 30 30 29 24 25 26 24 23 20 17 22 25 20 20 19 15 15 14 12 11 11 13
25 25 25 25 24 24 21 18 16 16 15 14 14 11 10 17 16 9 8 13 18 21 22 24 26 26 25 28 25 24 23 20 20 22 21 26 32 31 33 36 32 27 29 31 30 34 34 32 31 29 28 26 24 24 25 26 29 29 27 26 24 21 24 22 24 36 33 30 31 29 29 28 24 25 22 17 17 20 19 19 19 18 17 14 13 12 10 12
23 24 23 24 23 22 20 17 15 14 13 12 10 9 13 20 18 10 8 14 21 23 23 21 23 26 27 30 25 24 23 18 19 23 23 28 31 30 33 35 31 28 31 34 33 33 33 30 27 26 25 26 27 26 27 28 29 29 28 28 25 22 23 20 29 40 30 24 29 33 29 22 23 26 24 22 18 19 20 19 19 19 19 16 15 14 11 12
20 22 23 22 21 19 17 15 13 12 11 8 6 11 17 20 19 13 7 12 21 24 23 22 23 23 27 30 26 26 22 18 23 25 24 29 31 31 31 32 32 31 32 33 33 31 29 25 24 26 26 27 29 29 30 30 29 30 28 28 27 23 21 16 30 40 28 21 26 32 21 10 17 26 26 29 25 23 22 21 21 20 19 18 16 16 14 13
18 20 21 20 19 17 14 13 12 11 8 7 8 12 15 18 19 12 8 13 22 24 22 24 23 21 29 36 29 24 20 22 30 27 26 29 30 31 30 30 33 31 30 30 30 31 27 22 21 25 28 29 30 31 31 29 30 31 29 26 25 25 23 17 20 36 32 25 25 31 22 9 12 22 25 30 29 28 28 25 25 24 23 21 19 18 17 16
16 17 18 18 18 16 13 12 11 10 12 15 16 14 15 17 15 8 8 11 16 17 19 24 24 20 29 37 33 25 18 25 34 31 29 31 29 30 31 30 32 31 28 28 29 32 30 26 23 26 29 31 33 33 31 29 29 31 26 22 22 26 26 17 13 29 34 29 28 29 28 18 16 24 27 29 28 27 30 30 29 28 27 25 23 21 20 18
13 15 16 17 17 15 13 11 11 13 17 20 19 16 14 13 11 9 8 5 3 2 10 20 22 19 24 33 38 31 16 18 34 35 31 30 29 32 33 29 29 29 28 29 31 30 30 31 28 28 30 33 35 34 31 28 29 29 23 20 22 24 24 17 16 26 33 29 28 30 30 17 15 28 31 29 30 28 31 32 30 30 28 27 26 24 22 20
11 13 14 16 16 14 13 12 12 16 19 21 20 17 14 13 12 12 6 4 3 2 3 15 20 19 23 30 38 34 17 12 27 33 30 29 30 32 34 29 25 26 28 30 31 25 26 31 29 28 31 33 34 31 30 29 28 27 21 20 21 20 21 18 14 21 29 22 22 31 33 14 8 27 35 31 33 32 31 30 28 30 29 28 28 27 25 23
9 11 12 13 14 12 13 13 13 18 21 22 20 17 16 18 17 11 4 5 7 5 7 15 21 21 23 30 39 38 23 13 20 27 28 28 29 31 31 28 24 24 26 28 29 26 24 27 28 29 31 31 30 29 29 30 26 24 23 23 22 20 22 18 14 15 14 13 22 32 35 17 6 24 38 34 33 32 30 29 29 31 29 28 28 28 27 25
7 9 10 11 12 12 14 14 15 20 23 23 22 17 17 21 17 9 4 6 8 11 15 17 19 21 24 32 39 40 29 18 20 26 28 30 31 32 31 31 29 26 27 29 31 30 26 26 29 31 30 28 28 29 29 28 25 24 27 27 22 20 21 16 15 14 4 7 22 31 32 18 4 18 34 33 30 29 27 27 28 29 29 28 27 27 27 25
7 9 10 11 13 13 15 15 18 23 23 23 22 17 18 19 13 13 6 6 8 15 16 15 18 21 25 30 34 40 35 24 23 27 29 32 35 37 36 35 34 28 27 33 31 31 32 29 29 30 29 28 27 29 29 29 29 27 29 29 18 10 11 10 8 7 3 7 20 29 26 12 4 14 28 29 25 24 24 24 23 24 26 27 26 26 26 25
7 9 11 12 13 13 14 16 21 23 19 20 20 17 18 12 8 20 12 7 7 14 11 14 21 19 24 29 30 36 36 28 27 28 30 32 33 38 37 34 34 28 23 29 30 29 30 28 28 31 32 31 32 31 31 34 34 31 32 30 16 4 4 5 2 3 1 5 20 29 21 8 8 13 23 28 23 20 23 24 22 21 22 23 25 26 26 24
7 9 10 12 13 13 15 18 22 22 16 17 19 17 16 9 6 18 14 5 3 7 6 14 20 18 24 29 27 31 35 31 28 27 30 33 32 37 39 34 33 29 22 24 30 28 23 22 28 34 32 31 35 34 31 32 32 31 34 31 20 10 6 4 4 4 1 6 20 22 11 8 11 13 19 26 23 21 24 24 22 21 20 21 23 24 24 24
8 10 11 13 13 14 18 19 21 22 18 17 19 17 17 13 5 7 9 5 7 6 6 14 19 19 24 27 24 28 34 31 27 27 31 34 34 37 42 39 34 31 25 24 30 29 23 21 25 31 30 26 31 31 26 28 28 28 30 30 28 22 12 5 5 7 4 3 9 8 6 11 17 16 18 22 22 24 26 25 24 22 20 21 22 22 23 22
9 11 12 13 14 15 19 20 19 21 20 18 20 20 20 16 5 4 3 2 7 6 4 12 18 21 24 26 25 25 30 30 26 27 30 33 34 34 39 40 35 34 30 26 29 27 21 21 22 27 27 25 29 30 27 26 23 25 29 32 33 27 15 6 7 11 7 3 3 7 12 16 18 15 18 22 24 27 27 27 27 24 23 23 22 21 22 22
8 11 12 13 15 17 19 18 17 19 20 19 18 17 18 16 8 6 5 6 7 6 4 5 14 22 23 24 25 25 28 29 25 26 30 32 32 31 37 40 35 36 33 26 27 25 20 20 24 29 25 22 28 32 33 27 18 24 34 33 29 23 18 13 6 7 6 3 3 9 16 22 18 12 19 25 26 28 29 29 29 26 24 23 22 22 22 23
7 9 11 13 15 18 19 18 19 20 19 17 15 13 15 16 8 5 8 9 11 8 3 3 8 18 23 23 23 24 28 30 27 24 27 32 30 29 35 39 35 37 35 27 23 22 20 17 21 32 31 23 25 28 34 33 23 23 30 30 26 18 17 18 7 3 7 3 2 8 15 21 19 16 24 29 28 29 30 29 28 26 24 23 22 21 21 21
5 5 9 12 14 17 16 17 20 18 15 14 14 13 12 11 6 9 11 11 13 10 3 3 6 8 17 20 21 24 28 32 30 24 24 29 29 28 33 36 35 37 38 32 24 21 22 16 12 26 31 24 25 29 35 37 30 24 23 28 32 22 17 24 17 8 9 4 3 6 8 11 16 16 20 26 29 28 28 27 27 25 25 24 22 19 19 19
5 4 9 11 13 15 15 16 16 13 14 14 13 13 10 6 9 10 10 10 11 8 2 2 5 5 8 12 16 20 28 33 30 24 22 25 25 25 31 34 35 37 37 34 27 21 25 22 13 19 29 28 29 35 38 37 32 28 25 28 34 26 18 21 22 18 13 5 4 5 2 7 17 16 15 21 27 28 28 28 28 27 27 25 20 18 19 19
6 7 12 13 14 16 15 15 13 11 13 12 10 12 9 9 11 10 8 7 7 4 4 6 2 6 4 5 9 10 20 32 32 25 23 24 21 22 29 33 35 37 38 35 30 23 24 27 21 20 31 35 32 32 35 33 30 29 27 27 30 29 22 13 11 19 20 10 8 8 3 7 18 19 17 21 25 27 28 28 28 29 27 23 19 19 21 22
7 9 13 14 15 17 15 13 11 10 12 10 8 8 7 9 12 13 6 1 1 1 3 7 3 4 4 5 8 3 5 21 33 28 23 25 22 20 26 33 34 35 39 38 32 26 23 25 25 21 25 34 29 22 25 29 30 28 27 28 27 28 30 18 6 12 20 14 10 10 5 8 19 23 23 23 24 25 27 28 28 28 25 20 19 20 21 21
7 11 14 14 15 16 13 10 8 9 9 6 5 6 8 10 12 13 5 1 4 4 1 6 6 3 5 8 12 6 4 6 28 32 23 23 24 19 20 30 34 33 38 39 32 28 23 20 23 21 18 27 28 20 20 25 29 28 27 31 30 26 30 28 14 9 15 15 13 10 3 8 22 24 24 25 25 25 26 27 26 23 21 20 20 21 21 20
11 13 14 15 16 15 13 10 6 6 7 6 8 10 12 11 12 13 8 0 3 2 3 8 9 6 7 11 14 12 4 4 18 29 23 21 23 18 18 28 34 33 37 38 31 28 25 18 20 17 10 17 22 17 20 26 31 32 27 27 31 26 24 29 27 16 11 13 18 12 4 11 24 26 26 27 27 26 25 24 21 17 16 20 21 21 21 21
13 11 13 14 14 14 12 9 6 7 7 9 12 13 11 10 11 13 9 1 4 1 6 6 6 7 8 11 16 16 4 4 9 20 21 21 21 18 17 24 32 32 35 36 28 25 25 20 18 14 5 8 12 11 18 29 32 33 29 23 27 28 23 25 31 26 13 9 18 14 10 20 26 25 27 28 28 28 26 24 20 14 13 18 20 19 20 20
10 10 11 11 10 10 9 7 6 6 6 8 11 10 8 9 10 9 6 4 2 3 6 4 5 8 7 10 14 16 9 3 6 12 14 17 17 16 17 22 29 31 32 33 28 24 25 22 21 17 7 6 13 12 16 24 28 32 32 26 24 28 29 24 23 24 19 13 15 13 17 28 32 30 31 32 31 29 28 25 19 14 15 17 18 18 18 18
9 9 8 7 6 6 6 5 5 5 5 8 12 10 7 9 9 3 0 3 4 5 6 5 5 6 4 4 10 13 10 6 8 9 10 16 17 16 16 20 26 29 30 31 29 26 24 22 24 23 11 5 13 16 14 19 26 31 32 27 21 23 31 31 21 15 17 14 12 16 22 27 34 36 34 34 33 31 29 24 17 14 15 16 16 16 15 15
8 7 6 5 2 0 3 4 6 8 7 9 13 13 11 10 8 2 1 2 4 5 5 3 3 5 4 3 1 6 6 10 10 6 5 15 19 15 16 19 23 28 30 29 27 26 25 22 25 28 18 9 12 14 10 11 19 27 32 28 22 21 26 32 27 18 15 14 13 20 24 23 31 36 34 33 33 31 29 23 16 15 15 14 12 11 11 12
7 6 6 5 1 2 5 7 9 10 10 13 14 13 10 7 6 5 3 5 6 5 5 3 3 5 6 3 3 4 8 10 8 3 4 16 19 15 16 18 18 23 29 27 24 24 23 20 23 28 21 13 12 10 6 7 9 18 28 27 23 23 23 24 24 22 18 14 14 21 26 25 29 34 35 35 33 30 27 22 17 16 14 13 11 9 8 10
5 4 3 5 3 4 8 9 10 10 9 11 11 10 8 8 8 7 5 7 8 6 6 2 1 5 9 5 1 5 8 7 5 4 3 16 19 14 15 13 9 18 26 24 22 23 20 15 18 25 20 10 12 10 8 11 6 11 17 18 17 20 19 16 17 20 18 12 15 26 31 32 32 34 35 35 33 31 27 21 18 17 15 14 10 7 8 9
3 3 2 4 3 6 9 10 11 10 9 9 9 9 9 9 9 11 10 10 10 8 7 4 2 6 11 10 4 4 5 6 6 5 5 15 18 14 12 5 2 16 24 21 20 23 21 14 13 20 18 9 10 11 9 11 8 7 12 12 11 14 15 13 12 11 12 15 24 31 32 32 33 34 35 34 33 30 25 21 20 19 17 14 10 8 8 8
2 2 2 0 3 5 6 8 9 9 9 8 7 7 8 8 10 12 12 11 10 10 9 6 4 7 13 12 7 4 5 5 7 6 7 17 19 14 11 4 4 13 17 17 22 23 24 22 15 15 15 10 10 12 10 9 6 4 8 12 13 12 14 16 14 11 6 10 18 23 22 22 26 31 33 33 31 28 25 23 22 21 19 15 11 9 8 7
Wind_Direction
276 274 272 271 270 269 267 266 264 263 261 259 259 258 256 255 253 252 249 247 244 243 242 241 241 241 241 241 240 238 236 235 235 236 234 229 232 233 231 233 231 228 224 222 218 215 217 209 205 204 201 200 199 200 179 160 161 189 222 233 232 227 215 197 222 290 288 146 145 147 152 174 179 187 156 136 195 189 189 182 173 191 191 194 175 150 165 166
277 276 274 272 270 269 268 267 265 263 262 260 258 257 257 255 254 253 251 249 246 243 242 241 240 240 240 240 239 238 237 236 236 236 233 227 231 232 230 229 228 225 221 219 214 209 208 197 196 197 194 194 183 177 175 164 168 191 212 231 228 209 178 173 255 270 213 122 133 144 129 176 187 175 164 147 172 195 207 185 170 190 185 191 183 165 172 175
277 276 274 273 271 270 268 267 266 263 262 260 259 258 257 256 254 253 251 250 248 245 242 241 240 239 238 238 238 238 237 236 237 236 228 227 230 229 228 225 224 223 217 214 210 201 195 181 179 189 186 182 166 158 170 174 184 194 203 224 223 196 172 175 291 242 191 131 143 149 114 115 174 180 180 170 177 204 215 211 206 207 191 181 182 179 184 183
278 276 274 273 271 270 269 267 266 265 263 261 259 258 257 255 254 253 251 250 248 246 244 242 240 238 237 237 237 237 237 238 240 235 224 227 229 226 225 222 221 221 215 213 209 199 194 180 161 173 182 167 150 156 184 197 207 210 212 221 209 201 230 259 298 253 202 149 147 156 138 112 162 171 191 187 184 209 223 227 225 224 216 198 194 188 187 186
278 276 275 273 271 270 268 267 266 265 264 262 260 258 257 255 254 253 251 250 248 247 245 243 241 239 237 236 236 236 236 240 242 234 222 225 227 224 223 220 219 217 212 213 209 199 203 188 159 172 193 170 161 176 201 210 217 223 230 239 226 232 246 257 317 294 247 150 130 151 167 160 185 158 148 196 190 202 216 212 209 217 218 208 205 191 184 185
278 277 275 273 272 270 268 267 266 265 264 263 261 259 257 255 254 253 251 250 248 246 244 243 242 239 237 236 234 234 233 236 241 234 222 221 224 223 222 221 218 214 212 213 209 199 204 191 164 180 207 190 185 192 206 214 222 229 235 250 255 259 253 256 321 295 244 164 130 142 177 159 192 170 125 212 199 206 220 207 198 200 199 193 201 194 185 183
277 276 275 274 272 270 269 267 265 264 263 262 262 260 258 256 253 252 250 249 247 245 243 242 242 239 237 236 234 232 229 229 234 232 223 220 222 222 221 221 218 215 213 212 211 201 200 195 170 175 206 207 197 197 200 208 224 237 240 246 251 262 262 261 285 269 228 194 160 149 176 150 167 169 136 235 213 218 222 204 190 195 200 184 190 196 192 190
275 275 274 274 272 271 269 267 266 264 263 262 261 261 259 257 253 252 250 248 246 244 242 240 241 239 237 236 234 232 228 225 230 232 228 222 219 220 220 220 219 216 215 213 212 205 201 202 178 170 199 209 198 193 189 204 224 237 244 248 243 239 253 258 256 257 251 225 205 222 220 172 158 158 157 179 210 218 209 190 179 190 196 178 184 200 198 197
272 272 272 272 271 271 269 267 266 264 263 261 261 260 260 258 254 252 250 247 245 243 242 239 238 237 236 235 234 234 229 222 230 232 230 227 221 219 218 219 221 218 215 212 210 206 204 204 184 172 191 200 198 197 190 216 232 238 249 259 247 226 246 259 242 259 275 259 219 222 226 194 175 176 187 192 213 212 201 193 181 183 185 183 194 202 201 203
270 269 268 269 269 269 268 267 266 264 263 261 261 260 259 259 255 253 250 247 244 241 240 239 237 235 235 234 234 235 225 211 228 234 230 226 221 220 217 216 220 218 214 212 209 206 205 203 184 174 189 199 207 216 216 230 237 246 259 274 261 233 245 252 227 252 265 239 211 214 218 199 189 192 190 190 201 205 204 202 183 175 187 199 200 197 202 210
271 270 267 266 266 267 267 266 266 264 263 261 260 259 259 258 256 253 250 247 243 240 238 237 236 234 234 233 234 231 206 196 213 224 233 228 218 215 217 215 217 218 214 211 210 205 206 202 180 177 201 206 209 225 233 232 229 239 252 258 258 241 235 235 227 244 245 200 200 203 193 186 198 197 171 165 177 200 215 192 170 166 184 197 198 199 209 219
273 272 269 267 264 264 265 265 265 264 263 261 260 259 259 258 256 253 249 246 242 239 237 235 234 234 233 233 232 220 195 199 194 184 212 225 219 211 211 215 214 216 214 211 211 204 205 200 177 180 203 206 209 224 230 231 228 228 238 237 236 235 229 230 232 240 249 226 194 189 197 199 211 197 169 163 169 193 224 206 180 183 190 191 190 201 216 225
272 272 272 270 265 263 262 263 263 263 263 261 260 259 258 258 256 253 250 246 242 239 237 235 234 233 234 234 230 209 196 202 194 186 198 212 215 208 207 212 210 212 213 211 210 202 202 198 180 180 193 205 217 218 226 241 236 226 231 233 227 231 234 231 226 229 240 226 190 191 213 213 209 196 181 186 178 187 228 224 202 196 192 184 180 195 212 221
265 268 270 270 268 265 262 262 262 262 262 261 261 259 256 256 255 254 252 247 243 239 237 235 234 233 236 235 226 207 199 200 195 193 206 212 205 200 204 208 206 206 206 207 206 201 201 194 182 183 195 206 215 223 238 247 239 227 229 233 225 229 236 227 220 221 222 210 189 199 218 214 209 202 182 188 187 190 219 217 200 189 186 189 193 202 209 212
258 260 264 266 267 268 265 264 263 261 262 260 261 260 256 255 255 255 252 248 243 239 237 236 235 235 238 235 222 209 202 203 200 197 214 222 206 195 199 204 207 205 204 203 200 198 194 188 187 192 201 206 213 229 235 233 234 228 231 233 224 227 232 220 212 214 213 200 191 205 219 206 202 197 164 169 181 186 204 208 194 184 185 194 202 207 212 222
256 255 260 263 263 267 268 267 266 263 261 260 260 259 257 255 254 253 251 248 243 239 236 235 234 235 238 234 220 214 207 205 205 205 220 229 218 203 198 201 208 211 208 203 199 195 185 183 196 203 203 208 220 232 233 236 237 224 228 231 224 224 227 226 217 214 210 193 194 209 212 201 208 206 175 168 177 187 204 205 197 190 187 191 200 212 224 235
253 252 255 261 260 263 267 268 267 265 262 260 258 258 258 255 252 251 250 247 242 240 235 233 233 236 239 232 220 219 215 211 211 215 223 229 228 214 200 197 204 210 208 203 198 190 180 183 204 211 207 211 221 227 229 239 235 218 221 225 223 224 227 232 216 207 200 186 195 210 208 216 225 203 177 174 187 201 214 206 193 187 187 192 199 208 219 231
250 248 248 255 257 259 264 267 267 266 263 259 257 257 257 254 251 248 247 246 241 237 232 231 232 234 241 237 227 228 225 224 222 221 223 224 223 214 202 194 195 204 200 195 191 185 182 187 201 211 211 214 215 216 222 226 219 214 217 218 220 222 227 233 215 201 190 182 195 208 203 197 179 171 161 166 184 201 220 216 194 186 191 194 193 195 200 223
248 246 246 250 253 255 261 264 265 265 261 258 256 255 255 253 250 247 246 245 240 235 230 236 236 230 235 223 213 225 228 224 225 224 223 220 214 209 203 191 187 200 195 190 191 187 183 185 196 208 212 215 212 207 213 213 205 211 215 215 221 221 224 231 218 201 183 177 191 204 201 171 144 154 158 160 172 196 207 202 196 190 187 183 182 192 203 226
247 246 246 247 250 251 256 260 262 263 259 256 255 252 251 245 241 239 241 241 241 239 232 238 243 229 205 165 152 145 186 201 219 224 220 217 210 204 203 190 182 198 197 195 195 187 180 190 203 210 211 214 211 201 204 208 203 210 215 215 221 225 226 227 214 196 178 174 184 198 202 178 155 159 168 172 172 182 185 179 188 187 172 172 180 198 219 228
247 246 243 243 246 247 252 255 256 260 257 255 253 249 242 225 215 219 234 237 232 234 230 228 237 225 192 159 146 147 170 188 207 221 215 210 205 202 201 188 182 198 198 191 192 187 188 204 209 211 210 212 210 200 199 211 215 221 228 224 222 228 233 231 208 187 175 177 184 193 193 175 167 163 166 178 171 168 174 174 181 181 167 166 174 194 219 220
248 244 239 238 241 243 247 248 248 255 256 256 251 245 232 209 208 221 242 247 233 227 227 221 226 220 188 169 162 159 174 190 203 216 208 201 201 200 198 189 185 198 194 182 188 193 200 212 210 207 210 207 205 204 204 216 224 231 241 245 244 235 237 245 212 183 174 179 184 189 180 168 172 172 163 173 176 171 177 179 179 180 175 170 172 187 211 215
245 240 235 231 236 241 243 244 245 250 253 255 250 239 210 195 198 212 236 256 247 229 226 220 220 218 189 171 167 165 177 184 196 211 200 192 198 197 196 192 188 196 194 184 191 199 203 211 209 207 210 202 198 206 211 218 228 233 240 248 254 241 238 244 202 178 173 178 185 186 173 163 170 178 171 166 174 176 180 185 181 181 184 184 189 198 211 217
243 237 231 226 229 235 237 241 243 247 249 252 246 215 193 189 191 205 227 258 257 235 227 223 220 220 190 169 168 168 169 170 185 202 195 189 195 192 193 193 189 194 198 191 193 203 208 210 207 204 206 201 198 204 211 220 230 236 239 241 243 240 244 233 180 169 170 173 187 184 164 155 171 177 180 179 182 187 188 193 189 185 192 197 206 215 222 224
240 233 227 224 226 226 228 234 236 240 240 237 225 195 185 185 191 211 249 280 269 246 230 223 220 215 185 172 175 167 163 172 183 193 195 191 194 189 187 192 193 195 199 196 196 205 212 212 207 201 199 200 203 207 210 218 228 236 239 234 231 235 247 229 172 166 168 163 180 186 162 129 176 176 181 189 193 199 200 205 205 203 206 206 213 220 227 233
236 229 225 221 218 217 217 219 222 225 210 168 161 173 175 182 192 213 264 286 280 261 237 225 220 206 185 180 174 161 171 189 180 181 193 194 195 189 181 190 198 197 198 198 201 208 208 208 211 204 198 199 206 212 210 213 225 233 233 226 230 239 247 246 182 169 174 166 171 193 187 146 182 185 182 190 197 204 209 214 217 222 224 220 219 219 224 231
231 223 219 213 211 211 202 202 211 200 173 151 140 142 159 181 191 208 248 268 281 264 232 220 214 201 190 184 172 163 185 196 179 175 189 193 194 190 184 190 199 198 195 195 203 210 205 201 209 205 199 201 208 213 208 208 222 228 228 227 238 246 244 257 227 185 180 169 167 195 199 171 182 200 194 195 203 210 214 216 220 227 232 229 226 222 222 225
225 216 210 206 209 207 192 196 202 178 161 149 135 131 153 182 187 183 211 245 295 254 214 211 207 201 195 187 181 176 174 189 186 177 181 193 195 192 191 192 197 197 192 196 205 208 202 199 204 203 200 204 209 211 205 206 220 223 224 232 240 248 243 255 253 199 177 166 165 186 199 182 181 201 203 209 215 217 217 218 222 228 232 231 229 226 223 223
218 212 203 200 202 197 188 191 191 176 157 145 139 137 160 189 183 175 200 228 168 98 185 194 190 194 195 188 188 186 162 172 197 180 172 192 197 195 196 190 194 199 195 202 208 207 204 200 201 203 205 207 208 210 207 204 218 220 217 227 234 243 243 251 254 196 173 173 177 179 188 184 165 191 197 207 216 216 216 219 225 229 230 230 230 228 226 225
208 206 200 197 192 189 186 182 190 183 157 150 155 149 167 187 180 182 219 199 173 141 159 178 178 182 188 187 192 193 177 164 192 180 173 192 195 194 197 186 188 202 201 206 210 209 209 202 201 206 210 210 206 208 209 206 215 216 208 218 232 242 242 248 250 211 176 191 197 185 187 190 161 187 194 203 214 217 218 222 225 227 229 229 228 229 229 229
191 200 198 191 189 189 183 180 191 182 159 159 167 157 170 179 177 199 202 134 134 142 160 175 177 178 182 186 192 195 186 169 180 181 179 191 191 189 194 190 191 203 207 209 210 210 211 204 202 206 209 210 206 207 209 207 210 208 208 218 233 245 239 237 239 227 207 222 210 197 198 204 176 186 195 203 214 218 222 229 230 230 230 226 225 227 229 231
177 189 190 187 192 188 182 185 190 179 163 165 170 163 166 168 185 222 204 96 131 159 166 172 175 183 185 186 192 192 186 175 180 186 183 186 190 190 192 194 196 199 205 208 208 212 216 210 202 203 204 202 203 206 205 206 207 205 211 219 223 235 225 222 232 207 185 236 214 202 202 203 125 171 190 200 210 213 218 232 239 240 237 230 226 227 228 228
185 187 187 189 192 186 186 191 191 184 168 164 172 167 162 162 208 214 199 57 121 167 174 173 175 184 184 184 192 193 188 182 181 187 186 185 191 194 194 197 199 200 203 203 203 210 217 217 207 202 204 201 200 201 197 201 208 207 211 215 208 177 182 208 210 148 189 214 192 193 195 170 123 154 183 197 204 203 211 226 236 241 243 237 233 230 227 225
194 191 190 191 190 187 189 189 190 191 176 164 171 168 169 185 219 207 207 5 35 189 190 178 179 185 184 187 192 192 191 189 186 189 188 185 191 197 198 198 200 202 201 197 201 206 209 217 210 202 206 205 199 200 197 199 208 209 211 215 216 218 211 192 163 149 180 162 168 179 182 157 146 148 177 191 191 193 207 221 227 233 240 240 238 238 235 231
195 192 193 192 190 189 191 187 184 190 183 168 172 176 187 197 188 207 227 293 314 278 200 181 184 185 186 190 193 193 193 191 188 189 188 188 192 196 199 198 196 200 201 194 199 206 210 219 209 197 204 203 193 197 198 197 204 206 208 216 222 226 223 188 176 183 168 129 153 140 106 140 145 148 175 187 188 196 206 215 222 229 235 239 242 245 246 243
203 198 195 191 191 192 192 187 177 178 177 171 179 194 203 201 198 335 322 333 326 312 213 188 184 184 187 189 192 196 196 192 190 191 189 191 196 199 201 201 195 197 204 199 196 202 210 217 203 191 203 210 198 197 195 194 201 199 204 216 219 221 225 198 181 189 171 81 128 110 103 134 139 146 177 185 191 200 205 212 222 229 233 238 242 244 247 247
210 208 200 192 193 192 188 186 177 172 175 179 191 208 213 210 234 319 10 30 355 330 281 210 183 182 185 187 190 193 196 197 200 199 191 191 200 203 203 204 198 196 202 201 197 200 201 207 205 195 193 198 195 195 196 200 201 195 203 217 216 218 229 217 181 178 173 103 145 140 137 152 154 157 181 189 195 201 206 215 223 227 230 235 239 239 239 241
195 201 195 189 192 191 184 180 178 177 180 189 202 217 218 214 229 330 11 6 341 318 276 221 201 187 180 186 192 190 194 200 205 206 191 187 201 206 203 205 203 198 199 200 204 206 196 197 204 194 186 184 186 195 205 207 205 203 209 214 210 210 217 208 192 155 172 137 105 141 149 168 178 176 184 194 201 203 210 218 224 227 230 233 234 236 235 235
134 160 179 182 185 188 181 169 170 177 186 198 212 216 215 223 270 342 353 341 320 304 242 214 245 191 171 184 193 189 195 200 204 208 192 186 200 208 203 203 204 200 198 203 214 213 199 193 187 187 191 197 195 202 214 213 209 215 216 208 207 212 209 202 204 193 174 152 121 150 159 190 199 195 194 197 199 204 211 217 223 227 228 231 232 231 231 228
65 112 154 162 169 174 168 159 162 177 190 201 215 214 216 266 311 330 333 319 304 295 308 310 260 223 175 189 194 188 196 202 204 209 201 192 200 206 202 201 203 201 197 203 217 214 200 198 191 183 191 199 199 201 211 215 215 220 222 209 205 211 206 199 206 204 187 152 120 144 174 209 200 204 213 205 201 207 215 219 222 224 224 228 229 225 224 221
45 107 138 145 155 163 161 158 162 176 191 204 219 219 237 301 320 327 325 302 288 278 354 11 286 250 258 209 201 188 194 201 203 207 204 198 198 200 199 199 200 200 198 204 216 215 199 199 205 194 186 191 199 202 207 216 219 221 226 221 210 206 198 184 200 206 199 188 166 160 162 192 189 190 195 202 206 210 216 221 223 223 224 224 222 220 220 215
76 113 135 144 149 157 159 154 157 175 191 207 220 224 264 305 312 323 331 256 281 303 336 356 347 259 296 259 232 236 200 202 205 210 208 201 201 200 197 198 197 198 202 205 210 209 201 201 212 214 192 188 196 206 211 216 218 218 226 228 220 213 206 199 185 192 197 197 174 160 150 168 181 184 181 190 205 212 217 223 226 227 226 221 217 219 217 211
89 122 133 139 141 149 160 155 159 191 202 221 252 263 293 298 295 304 305 123 31 45 225 302 320 289 275 259 229 218 10 209 206 212 213 205 206 204 197 196 195 197 203 206 207 204 199 197 205 214 202 190 196 210 215 216 216 219 226 225 220 218 213 214 218 196 198 199 167 140 107 168 174 182 185 189 202 215 222 226 230 234 229 218 214 215 213 207
103 122 126 134 141 153 170 168 172 218 235 269 283 279 283 282 279 285 283 131 53 43 262 280 295 280 250 246 226 215 352 9 206 211 213 209 209 207 200 195 194 197 202 204 205 199 196 196 194 196 191 187 194 205 207 207 214 222 228 224 219 218 212 214 220 225 236 213 177 149 110 168 173 181 190 195 203 215 225 230 232 235 227 215 210 206 205 204
111 121 127 136 149 161 174 178 192 230 247 260 267 268 269 268 268 273 280 78 117 305 314 295 287 290 258 236 231 229 246 16 228 221 215 210 209 207 204 195 192 198 202 203 202 196 199 203 193 187 178 176 187 196 197 198 208 222 229 225 219 216 210 207 209 217 235 195 170 165 152 157 167 181 189 196 207 214 223 231 229 219 210 205 201 197 199 202
112 121 130 139 149 162 177 195 218 242 263 273 278 277 272 281 281 269 284 347 358 296 305 275 267 291 263 224 235 238 217 177 261 253 227 214 209 202 200 195 194 198 199 201 203 199 201 208 202 198 204 195 197 205 205 202 208 219 224 226 222 214 213 211 205 211 219 185 157 176 179 163 164 179 189 197 209 216 219 226 223 205 194 193 193 195 197 201
109 117 130 140 137 152 184 211 241 267 289 298 304 304 288 292 298 279 324 325 292 279 284 267 260 273 248 216 239 235 222 238 280 282 242 216 206 198 198 196 197 199 197 200 206 202 197 203 206 204 211 223 208 209 214 212 213 217 222 230 232 216 212 218 223 222 215 200 168 174 183 175 172 182 192 198 206 215 218 220 215 198 194 195 196 200 202 205
101 104 120 142 117 113 224 237 256 269 274 276 289 299 301 305 309 314 38 269 247 251 264 281 283 244 192 98 206 225 260 292 291 290 217 194 196 205 207 197 196 202 201 200 204 203 197 198 202 204 211 230 216 209 215 216 212 215 219 227 234 226 214 218 230 233 218 224 216 184 181 184 181 184 195 200 204 212 216 215 206 197 202 208 206 207 210 213
92 90 116 157 193 262 248 254 259 266 265 256 267 288 300 307 308 303 300 279 263 232 216 246 313 246 204 100 36 286 293 301 291 303 160 178 191 211 212 202 200 205 204 196 191 195 194 188 192 201 210 225 218 215 249 255 214 199 206 216 226 227 218 214 223 228 222 233 225 186 173 177 181 185 192 197 202 209 211 207 199 196 205 211 207 206 208 209
83 63 129 185 233 273 265 260 258 266 268 258 265 284 285 283 287 280 259 255 255 223 194 207 319 240 218 190 188 266 272 278 279 310 187 183 192 201 202 210 221 202 194 186 183 192 191 175 183 198 205 218 221 226 264 264 226 164 176 193 206 209 208 207 216 220 213 193 173 170 167 167 177 187 191 195 201 205 205 201 195 198 205 202 197 202 206 204
47 32 145 194 259 292 278 261 258 268 273 269 272 276 271 269 268 260 243 236 236 214 186 184 219 225 212 207 221 241 239 244 250 274 220 191 192 191 183 181 209 191 186 181 184 197 201 188 182 197 202 202 208 218 247 251 227 154 144 149 165 182 181 176 180 195 205 181 162 166 170 169 176 187 192 197 202 204 203 200 197 202 202 195 196 209 210 207
27 46 115 347 320 307 285 267 270 281 279 273 275 276 275 266 257 259 256 245 234 218 195 186 234 223 201 210 253 239 204 222 227 241 217 193 191 190 182 153 139 179 186 185 184 190 200 198 183 187 196 186 185 202 220 229 216 132 119 124 137 165 174 165 146 126 159 184 164 165 174 177 180 186 191 196 200 201 201 198 202 207 200 191 197 212 219 223
Height
3068 3068 3068 3068 3068 3068 3069 3069 3070 3070 3070 3071 3071 3072 3073 3074 3075 3077 3078 3080 3082 3083 3085 3086 3088 3089 3091 3092 3094 3095 3097 3097 3098 3098 3102 3107 3106 3107 3110 3112 3114 3115 3116 3117 3119 3120 3121 3123 3124 3126 3127 3128 3130 3131 3131 3132 3134 3138 3140 3140 3139 3138 3138 3138 3141 3145 3143 3142 3142 3142 3144 3145 3147 3148 3151 3152 3149 3150 3150 3149 3151 3152 3155 3159 3160 3161 3161 3162
3065 3065 3065 3065 3065 3065 3065 3066 3067 3067 3067 3068 3068 3069 3070 3071 3072 3074 3075 3077 3078 3080 3082 3083 3085 3086 3088 3089 3091 3092 3093 3095 3095 3095 3102 3105 3103 3106 3109 3110 3112 3113 3115 3116 3117 3119 3121 3122 3124 3125 3126 3128 3129 3130 3131 3132 3133 3135 3138 3138 3135 3136 3137 3139 3143 3145 3142 3141 3141 3142 3144 3145 3146 3147 3149 3151 3148 3148 3150 3149 3151 3153 3154 3158 3159 3160 3161 3162
3062 3062 3062 3062 3062 3062 3062 3063 3063 3064 3064 3065 3065 3066 3067 3068 3069 3070 3072 3073 3075 3077 3079 3080 3082 3083 3085 3086 3088 3089 3091 3092 3091 3095 3101 3102 3101 3105 3107 3109 3110 3112 3114 3115 3116 3118 3119 3121 3123 3125 3126 3127 3128 3129 3131 3132 3133 3134 3136 3135 3132 3135 3138 3139 3144 3144 3141 3141 3141 3143 3144 3145 3146 3147 3148 3151 3149 3148 3149 3149 3151 3153 3155 3157 3159 3160 3161 3161
3059 3059 3059 3059 3059 3059 3059 3060 3060 3061 3061 3062 3062 3063 3064 3065 3066 3067 3069 3070 3072 3074 3076 3077 3079 3080 3082 3083 3085 3086 3088 3089 3089 3094 3099 3098 3100 3103 3104 3107 3108 3110 3112 3113 3114 3116 3118 3119 3121 3124 3125 3126 3127 3128 3129 3132 3134 3134 3134 3132 3131 3135 3137 3139 3144 3144 3141 3140 3141 3142 3144 3145 3146 3147 3148 3150 3150 3148 3148 3149 3151 3154 3155 3157 3158 3160 3161 3161
3056 3056 3056 3056 3056 3056 3056 3057 3057 3057 3058 3058 3059 3060 3061 3062 3063 3065 3066 3067 3069 3071 3073 3074 3075 3077 3079 3081 3082 3084 3086 3087 3086 3091 3095 3096 3098 3100 3102 3105 3106 3108 3110 3111 3113 3115 3117 3117 3118 3122 3124 3124 3126 3127 3128 3131 3133 3134 3132 3131 3132 3136 3137 3138 3142 3142 3141 3140 3140 3142 3144 3145 3146 3147 3148 3148 3148 3147 3147 3149 3151 3154 3155 3157 3158 3159 3160 3161
3052 3053 3053 3053 3053 3053 3053 3054 3054 3054 3054 3055 3056 3057 3058 3059 3060 3062 3063 3064 3066 3068 3070 3071 3073 3074 3076 3078 3079 3081 3083 3084 3083 3088 3092 3094 3095 3098 3100 3102 3104 3106 3108 3109 3111 3113 3115 3116 3117 3120 3123 3123 3124 3126 3128 3131 3132 3132 3132 3131 3133 3136 3137 3137 3140 3139 3139 3140 3140 3141 3143 3144 3145 3148 3147 3146 3147 3147 3146 3148 3150 3154 3155 3156 3158 3159 3159 3160
3049 3049 3049 3050 3050 3050 3050 3051 3051 3051 3051 3052 3052 3053 3055 3056 3057 3059 3060 3061 3063 3065 3066 3068 3069 3071 3074 3075 3076 3077 3079 3080 3082 3086 3089 3091 3093 3096 3098 3100 3102 3104 3106 3108 3110 3112 3114 3115 3115 3118 3122 3123 3123 3124 3126 3130 3132 3131 3131 3131 3133 3135 3136 3137 3139 3138 3138 3140 3140 3141 3143 3144 3145 3148 3147 3144 3146 3146 3146 3147 3150 3153 3155 3156 3158 3158 3159 3159
3045 3045 3045 3046 3046 3047 3047 3047 3048 3048 3049 3049 3050 3050 3052 3053 3055 3056 3057 3058 3060 3062 3063 3065 3066 3069 3070 3071 3073 3073 3074 3078 3081 3084 3087 3089 3091 3093 3095 3098 3100 3102 3104 3106 3109 3111 3113 3114 3114 3117 3120 3122 3123 3124 3126 3128 3130 3131 3130 3131 3132 3133 3135 3137 3138 3137 3137 3138 3140 3141 3142 3144 3145 3149 3147 3144 3146 3146 3146 3148 3150 3153 3154 3156 3157 3158 3158 3158
3042 3041 3042 3042 3043 3043 3044 3044 3044 3045 3045 3046 3047 3047 3049 3050 3052 3053 3054 3055 3057 3058 3060 3062 3063 3065 3066 3068 3069 3068 3072 3080 3081 3082 3085 3087 3089 3091 3093 3096 3098 3100 3103 3105 3107 3109 3111 3112 3113 3116 3119 3121 3123 3123 3125 3127 3128 3130 3130 3131 3131 3131 3133 3136 3136 3135 3136 3138 3139 3140 3141 3144 3145 3148 3147 3144 3146 3146 3146 3148 3150 3153 3155 3155 3156 3157 3158 3158
3038 3038 3038 3039 3039 3039 3040 3041 3041 3042 3042 3043 3044 3044 3046 3047 3049 3050 3051 3052 3054 3055 3057 3058 3060 3062 3063 3064 3064 3065 3074 3081 3079 3080 3083 3084 3087 3089 3091 3093 3095 3098 3101 3103 3105 3107 3109 3111 3113 3116 3118 3120 3122 3122 3124 3126 3127 3129 3129 3130 3130 3131 3131 3134 3135 3134 3135 3137 3139 3139 3140 3143 3145 3147 3147 3143 3145 3146 3145 3148 3151 3153 3154 3155 3156 3156 3158 3158
3034 3034 3034 3035 3035 3036 3037 3037 3038 3039 3039 3040 3041 3042 3043 3044 3046 3047 3048 3049 3051 3052 3053 3054 3057 3058 3059 3060 3060 3066 3075 3076 3074 3077 3079 3081 3084 3087 3089 3091 3093 3096 3099 3101 3103 3105 3108 3111 3112 3115 3117 3118 3119 3121 3122 3123 3125 3127 3128 3129 3129 3130 3130 3132 3134 3134 3134 3136 3138 3139 3140 3142 3144 3146 3147 3144 3143 3143 3145 3148 3150 3152 3153 3154 3155 3157 3158 3158
3030 3030 3030 3031 3032 3032 3033 3034 3035 3036 3036 3037 3038 3039 3040 3041 3043 3044 3045 3046 3048 3049 3050 3051 3053 3054 3055 3054 3057 3068 3074 3070 3068 3070 3073 3077 3081 3085 3087 3089 3091 3094 3096 3099 3102 3104 3107 3110 3111 3113 3116 3117 3119 3120 3120 3121 3122 3124 3126 3127 3128 3129 3129 3131 3133 3133 3134 3136 3137 3139 3139 3140 3142 3144 3148 3146 3140 3139 3143 3146 3149 3152 3152 3154 3155 3157 3158 3158
3026 3026 3027 3027 3027 3028 3029 3030 3031 3032 3033 3034 3035 3036 3037 3038 3039 3041 3043 3044 3045 3046 3047 3048 3049 3050 3050 3049 3057 3069 3071 3068 3067 3067 3069 3073 3078 3083 3085 3087 3089 3092 3095 3097 3100 3103 3106 3108 3109 3110 3113 3116 3118 3120 3120 3121 3121 3122 3123 3125 3127 3127 3128 3129 3132 3133 3133 3135 3136 3138 3138 3139 3141 3143 3147 3147 3140 3138 3142 3145 3148 3151 3152 3153 3155 3156 3157 3157
3023 3023 3023 3023 3024 3024 3025 3027 3028 3029 3030 3031 3032 3033 3034 3035 3036 3038 3040 3041 3043 3043 3044 3044 3045 3047 3045 3047 3058 3065 3066 3066 3066 3066 3068 3070 3074 3080 3082 3085 3087 3089 3092 3095 3099 3102 3104 3107 3108 3109 3111 3113 3115 3118 3119 3120 3120 3121 3122 3123 3125 3125 3126 3128 3130 3131 3132 3134 3135 3137 3138 3139 3140 3142 3145 3145 3142 3142 3142 3143 3147 3149 3151 3153 3154 3155 3156 3156
3020 3020 3021 3021 3021 3021 3022 3023 3024 3026 3027 3028 3029 3030 3030 3032 3034 3036 3037 3039 3040 3040 3041 3041 3043 3044 3042 3046 3057 3061 3062 3062 3061 3064 3068 3069 3072 3076 3080 3083 3085 3087 3090 3093 3096 3099 3102 3105 3106 3107 3109 3111 3113 3115 3117 3118 3119 3120 3120 3120 3122 3123 3125 3127 3129 3130 3131 3133 3135 3136 3137 3139 3139 3142 3144 3141 3141 3143 3143 3144 3147 3149 3151 3152 3153 3154 3154 3155
3015 3017 3017 3018 3018 3019 3019 3020 3021 3023 3024 3025 3026 3026 3027 3029 3031 3033 3034 3036 3037 3037 3038 3039 3040 3040 3038 3045 3054 3055 3055 3056 3058 3063 3066 3068 3071 3075 3078 3081 3084 3086 3088 3091 3094 3097 3100 3103 3104 3106 3107 3109 3111 3112 3114 3115 3116 3118 3118 3119 3120 3122 3124 3125 3126 3128 3130 3132 3134 3135 3136 3138 3139 3141 3143 3140 3140 3143 3143 3144 3146 3148 3150 3151 3152 3153 3154 3155
3011 3013 3014 3014 3015 3016 3016 3017 3018 3020 3021 3023 3023 3023 3024 3027 3028 3030 3032 3033 3034 3034 3036 3036 3036 3036 3038 3045 3049 3049 3051 3054 3058 3062 3065 3068 3072 3075 3077 3079 3082 3084 3087 3090 3093 3095 3097 3099 3102 3104 3105 3107 3108 3111 3112 3112 3112 3115 3116 3118 3119 3121 3122 3122 3124 3126 3129 3131 3133 3134 3136 3138 3137 3140 3141 3139 3140 3142 3142 3143 3145 3147 3149 3150 3151 3153 3154 3155
3007 3009 3010 3011 3012 3013 3014 3015 3016 3017 3018 3019 3020 3020 3022 3024 3026 3028 3029 3030 3030 3031 3032 3032 3032 3035 3040 3044 3046 3049 3052 3055 3058 3061 3063 3066 3070 3074 3075 3077 3080 3083 3085 3088 3090 3093 3094 3096 3100 3102 3102 3103 3105 3107 3108 3108 3110 3112 3114 3116 3117 3119 3119 3119 3122 3124 3127 3129 3131 3133 3136 3137 3137 3140 3141 3139 3140 3142 3142 3142 3143 3144 3146 3148 3150 3152 3154 3155
3003 3004 3006 3007 3008 3010 3011 3012 3014 3015 3016 3017 3017 3018 3020 3022 3024 3025 3026 3026 3027 3028 3030 3030 3030 3036 3040 3041 3045 3049 3051 3054 3057 3058 3060 3064 3067 3071 3073 3075 3078 3081 3083 3085 3087 3089 3092 3094 3096 3096 3096 3098 3101 3104 3105 3108 3110 3111 3113 3115 3115 3116 3116 3117 3120 3122 3125 3128 3129 3132 3135 3139 3138 3138 3139 3138 3139 3141 3141 3139 3140 3142 3145 3148 3150 3151 3153 3154
2998 3000 3002 3004 3005 3007 3008 3010 3011 3012 3013 3014 3015 3016 3018 3020 3022 3023 3022 3022 3023 3026 3028 3028 3028 3033 3038 3039 3041 3044 3047 3051 3053 3054 3058 3061 3065 3069 3071 3073 3076 3079 3080 3081 3084 3087 3090 3091 3090 3090 3092 3096 3100 3103 3105 3108 3109 3110 3112 3113 3113 3114 3113 3114 3118 3120 3124 3126 3127 3131 3135 3137 3136 3134 3136 3138 3138 3139 3138 3137 3138 3142 3145 3147 3149 3150 3151 3152
2994 2996 2998 3000 3002 3004 3005 3007 3009 3010 3010 3011 3013 3014 3017 3019 3019 3019 3019 3019 3021 3022 3023 3025 3026 3029 3035 3037 3037 3039 3042 3046 3048 3051 3055 3059 3062 3065 3067 3070 3072 3074 3076 3080 3084 3087 3087 3085 3085 3088 3092 3096 3100 3103 3105 3106 3106 3107 3110 3111 3112 3112 3110 3112 3115 3118 3122 3124 3126 3130 3134 3134 3132 3133 3135 3136 3136 3136 3136 3137 3139 3142 3144 3146 3148 3149 3150 3151
2990 2992 2994 2997 2999 3001 3003 3005 3006 3007 3008 3009 3011 3012 3015 3017 3017 3017 3017 3016 3017 3018 3019 3022 3023 3026 3032 3034 3034 3036 3038 3041 3045 3049 3052 3055 3058 3060 3063 3066 3068 3071 3075 3078 3081 3083 3082 3081 3083 3089 3092 3096 3099 3102 3104 3103 3104 3105 3107 3109 3110 3110 3109 3110 3114 3116 3119 3121 3124 3127 3129 3130 3130 3132 3133 3135 3136 3136 3136 3137 3140 3142 3143 3145 3147 3148 3149 3150
2987 2989 2991 2993 2996 2999 3001 3002 3004 3005 3006 3008 3009 3011 3014 3016 3016 3016 3015 3013 3013 3015 3017 3018 3020 3023 3029 3031 3032 3033 3034 3037 3042 3046 3049 3052 3054 3057 3061 3064 3066 3070 3073 3074 3076 3077 3077 3078 3084 3089 3092 3095 3098 3100 3102 3102 3102 3103 3104 3107 3107 3107 3107 3108 3110 3114 3117 3118 3120 3123 3125 3127 3129 3130 3131 3134 3137 3136 3136 3138 3140 3141 3142 3143 3145 3147 3149 3150
2983 2985 2988 2990 2993 2996 2998 3000 3002 3003 3005 3006 3008 3010 3011 3013 3015 3014 3013 3011 3010 3011 3014 3016 3018 3021 3026 3030 3030 3031 3033 3036 3040 3044 3047 3049 3052 3056 3059 3062 3065 3068 3069 3071 3074 3075 3076 3078 3084 3088 3090 3093 3095 3097 3100 3100 3099 3100 3102 3104 3104 3103 3105 3107 3108 3111 3116 3117 3116 3118 3123 3126 3128 3129 3130 3133 3135 3136 3136 3137 3139 3140 3141 3142 3144 3146 3148 3150
2980 2982 2985 2988 2991 2993 2996 2998 3000 3002 3003 3005 3006 3008 3009 3012 3014 3013 3013 3012 3008 3009 3013 3014 3015 3018 3024 3028 3028 3028 3031 3035 3039 3044 3046 3047 3050 3053 3057 3062 3064 3065 3067 3070 3073 3075 3077 3080 3083 3086 3088 3091 3092 3094 3096 3097 3098 3098 3099 3100 3101 3100 3103 3108 3110 3110 3113 3114 3114 3115 3121 3128 3129 3128 3130 3132 3133 3135 3136 3137 3138 3139 3139 3141 3143 3145 3147 3149
2978 2981 2983 2986 2989 2991 2994 2996 2998 3000 3002 3004 3004 3006 3009 3011 3013 3013 3014 3014 3008 3006 3009 3011 3013 3017 3019 3022 3024 3028 3030 3031 3036 3042 3045 3047 3049 3052 3056 3059 3061 3063 3067 3070 3073 3074 3076 3079 3081 3083 3085 3088 3090 3091 3092 3096 3097 3096 3096 3098 3099 3099 3100 3106 3110 3110 3108 3110 3113 3114 3117 3125 3129 3128 3129 3131 3133 3134 3135 3136 3137 3137 3138 3140 3142 3144 3146 3147
2977 2980 2982 2985 2987 2989 2992 2994 2996 2999 3000 3001 3002 3005 3009 3010 3012 3013 3015 3017 3008 3001 3003 3006 3011 3014 3016 3019 3023 3026 3028 3029 3034 3038 3041 3046 3049 3052 3055 3057 3059 3062 3066 3070 3070 3069 3072 3077 3079 3080 3083 3085 3086 3087 3089 3093 3095 3093 3094 3097 3098 3098 3098 3102 3107 3108 3107 3107 3111 3112 3113 3120 3125 3127 3129 3130 3131 3133 3134 3135 3136 3137 3138 3139 3141 3143 3145 3146
2976 2978 2981 2983 2986 2988 2991 2993 2995 2998 2999 3000 3001 3005 3007 3009 3011 3013 3016 3016 3006 2997 2999 3002 3008 3013 3016 3020 3021 3023 3026 3029 3032 3034 3038 3044 3048 3051 3052 3055 3058 3061 3064 3066 3065 3066 3070 3073 3075 3078 3080 3081 3082 3084 3088 3091 3092 3092 3095 3096 3096 3097 3097 3101 3104 3105 3104 3105 3108 3110 3111 3117 3121 3123 3126 3128 3129 3131 3132 3133 3135 3135 3136 3138 3140 3141 3143 3145
2976 2978 2980 2982 2985 2987 2990 2992 2994 2997 2998 2999 3000 3002 3005 3008 3010 3013 3016 3012 3001 2996 2998 3001 3005 3010 3014 3018 3020 3023 3026 3028 3031 3034 3037 3042 3046 3048 3050 3053 3058 3061 3063 3064 3064 3067 3069 3070 3074 3077 3077 3078 3080 3084 3087 3089 3090 3093 3096 3095 3095 3096 3098 3101 3102 3101 3102 3103 3104 3106 3108 3113 3120 3120 3121 3124 3125 3127 3130 3132 3133 3134 3135 3136 3138 3139 3141 3143
2977 2979 2980 2982 2985 2987 2988 2991 2993 2995 2997 2999 2999 3000 3003 3007 3009 3012 3013 3006 2998 2998 2999 3000 3004 3008 3011 3015 3018 3022 3025 3027 3032 3035 3037 3040 3044 3048 3051 3054 3058 3060 3061 3063 3064 3066 3068 3070 3073 3074 3074 3076 3080 3083 3085 3087 3090 3094 3095 3094 3095 3095 3097 3100 3101 3100 3102 3101 3100 3104 3106 3110 3116 3118 3117 3118 3120 3123 3126 3129 3131 3132 3133 3134 3135 3136 3138 3140
2977 2979 2980 2982 2984 2986 2987 2990 2992 2993 2995 2998 2999 2999 3002 3005 3009 3010 3006 2999 2997 2999 3000 3002 3006 3008 3009 3012 3015 3020 3024 3026 3030 3034 3035 3038 3042 3045 3049 3051 3053 3056 3059 3060 3061 3063 3066 3068 3069 3070 3073 3076 3079 3082 3084 3086 3089 3092 3092 3093 3095 3094 3094 3098 3099 3100 3102 3100 3099 3103 3106 3107 3112 3115 3116 3117 3118 3121 3125 3127 3128 3130 3131 3132 3133 3133 3135 3137
2977 2979 2980 2982 2984 2985 2987 2990 2991 2992 2994 2997 2998 2999 3001 3005 3007 3003 2997 2995 2998 3000 3000 3003 3006 3008 3010 3013 3015 3018 3022 3024 3027 3031 3033 3035 3038 3040 3042 3044 3046 3050 3052 3054 3058 3060 3062 3064 3066 3068 3071 3074 3076 3078 3081 3083 3086 3088 3089 3091 3094 3093 3093 3096 3096 3098 3100 3099 3100 3103 3105 3107 3110 3112 3114 3116 3117 3121 3124 3125 3127 3128 3129 3130 3131 3131 3133 3135
2977 2979 2980 2982 2983 2985 2987 2989 2990 2992 2993 2996 2998 2999 3001 3004 3002 2997 2994 2996 2999 3001 3003 3004 3006 3009 3011 3013 3015 3017 3020 3023 3024 3029 3033 3034 3037 3039 3040 3042 3044 3047 3048 3052 3057 3058 3059 3062 3064 3065 3067 3070 3072 3074 3076 3078 3080 3084 3085 3086 3090 3091 3092 3094 3095 3097 3099 3098 3099 3102 3104 3108 3110 3111 3113 3114 3116 3120 3123 3124 3125 3127 3128 3128 3129 3129 3131 3134
2978 2979 2980 2981 2983 2985 2987 2988 2990 2991 2993 2995 2997 2998 3000 3000 2998 2996 2997 2998 2998 3001 3005 3007 3007 3009 3011 3013 3015 3016 3019 3021 3023 3028 3031 3033 3035 3037 3039 3040 3042 3046 3049 3052 3054 3054 3055 3057 3057 3060 3063 3065 3069 3070 3073 3076 3079 3082 3083 3085 3087 3088 3090 3092 3092 3095 3098 3098 3099 3101 3104 3107 3110 3112 3112 3113 3116 3119 3121 3122 3124 3125 3126 3126 3127 3128 3130 3132
2977 2978 2980 2981 2983 2985 2986 2988 2990 2991 2993 2994 2996 2997 2997 2996 2997 2998 2999 3000 3000 3000 3002 3006 3007 3009 3011 3013 3015 3016 3018 3019 3022 3026 3029 3030 3032 3034 3036 3037 3039 3044 3047 3049 3050 3051 3053 3053 3054 3059 3061 3064 3067 3070 3073 3077 3078 3080 3083 3084 3083 3085 3088 3089 3089 3092 3095 3097 3099 3101 3105 3108 3110 3112 3113 3114 3116 3117 3118 3120 3122 3123 3124 3125 3126 3127 3128 3130
2977 2978 2979 2981 2982 2984 2985 2987 2989 2990 2992 2994 2995 2995 2994 2995 2998 2999 2999 3000 3000 2999 3000 3002 3005 3007 3010 3012 3014 3016 3018 3019 3021 3024 3027 3029 3031 3032 3034 3036 3038 3041 3043 3045 3047 3049 3051 3052 3055 3058 3060 3062 3065 3068 3071 3073 3075 3078 3080 3078 3079 3084 3088 3088 3088 3091 3093 3097 3102 3103 3105 3109 3110 3112 3114 3114 3115 3116 3116 3118 3119 3121 3122 3123 3125 3126 3127 3129
2976 2977 2978 2980 2982 2983 2985 2986 2988 2990 2992 2994 2994 2994 2995 2996 2997 2998 2999 3000 3000 3000 3001 3001 3003 3006 3008 3010 3013 3015 3017 3019 3020 3022 3024 3027 3029 3031 3034 3036 3037 3039 3041 3044 3047 3048 3050 3052 3054 3056 3059 3061 3064 3067 3069 3070 3072 3074 3074 3075 3080 3086 3087 3086 3087 3090 3092 3096 3103 3105 3105 3107 3109 3110 3112 3113 3113 3114 3115 3116 3117 3119 3121 3122 3124 3125 3126 3127
2976 2977 2978 2980 2981 2983 2985 2987 2988 2990 2992 2993 2994 2995 2996 2996 2997 2998 2999 3000 3001 3001 3001 3002 3003 3004 3007 3010 3011 3014 3016 3017 3018 3020 3022 3024 3026 3028 3031 3034 3036 3037 3040 3043 3046 3048 3049 3051 3052 3054 3057 3060 3064 3067 3067 3067 3068 3071 3073 3077 3081 3082 3082 3083 3086 3088 3090 3095 3102 3106 3105 3105 3106 3106 3108 3110 3111 3112 3113 3113 3115 3117 3119 3121 3122 3124 3125 3126
2977 2978 2979 2980 2982 2984 2986 2988 2989 2991 2993 2994 2995 2996 2996 2997 2998 2999 2999 3001 3002 3001 3001 3002 3003 3003 3005 3009 3011 3013 3015 3015 3016 3019 3020 3022 3024 3025 3029 3033 3035 3036 3038 3041 3044 3047 3048 3049 3050 3053 3056 3059 3062 3064 3063 3063 3065 3069 3074 3076 3077 3078 3079 3080 3082 3085 3088 3092 3099 3105 3106 3105 3104 3105 3106 3108 3109 3110 3111 3112 3113 3115 3117 3118 3120 3122 3123 3125
2978 2979 2979 2981 2983 2985 2987 2989 2990 2992 2994 2995 2996 2997 2998 2998 2998 2998 3000 3001 3001 3001 3001 3002 3002 3002 3003 3006 3008 3011 3014 3015 3016 3018 3019 3020 3022 3024 3027 3030 3033 3035 3036 3039 3043 3045 3047 3047 3048 3052 3055 3057 3057 3057 3058 3061 3065 3067 3069 3072 3073 3076 3077 3079 3080 3082 3084 3087 3093 3101 3104 3102 3101 3104 3105 3107 3108 3109 3110 3111 3112 3113 3114 3116 3119 3121 3122 3124
2979 2980 2981 2983 2985 2986 2988 2990 2992 2994 2995 2997 2998 2998 2999 2999 2998 2999 3000 3000 3000 3000 3000 3000 3002 3002 3003 3005 3006 3008 3012 3014 3015 3017 3018 3020 3021 3022 3024 3027 3031 3033 3035 3037 3040 3043 3045 3045 3047 3050 3051 3052 3053 3056 3060 3063 3065 3066 3067 3069 3071 3073 3075 3076 3078 3079 3081 3084 3088 3093 3098 3098 3099 3102 3104 3106 3107 3108 3109 3110 3110 3111 3113 3115 3118 3120 3121 3123
2981 2982 2984 2985 2987 2989 2991 2993 2994 2996 2997 2998 2999 2999 2999 2999 3000 3000 3000 3000 3000 3000 2999 3000 3001 3002 3003 3005 3005 3006 3009 3012 3014 3015 3017 3018 3019 3020 3022 3025 3028 3031 3033 3034 3037 3041 3044 3044 3047 3048 3048 3050 3054 3058 3060 3062 3065 3067 3067 3068 3069 3071 3072 3073 3075 3077 3080 3082 3084 3087 3092 3096 3099 3100 3102 3105 3106 3107 3108 3108 3108 3110 3112 3115 3117 3119 3120 3122
2982 2983 2985 2987 2989 2992 2994 2995 2996 2997 2998 2999 2999 2999 3000 3000 3001 3002 3001 3001 3000 3001 3001 3001 3001 3002 3003 3004 3005 3006 3008 3009 3011 3013 3016 3017 3018 3019 3021 3023 3027 3030 3032 3033 3036 3040 3043 3043 3045 3047 3049 3052 3055 3058 3059 3061 3064 3064 3064 3065 3067 3068 3069 3071 3075 3077 3078 3080 3082 3086 3092 3096 3098 3100 3102 3103 3104 3105 3106 3107 3108 3109 3112 3114 3116 3118 3120 3122
2984 2985 2987 2989 2991 2993 2995 2996 2997 2998 2998 2999 2999 2999 2999 3001 3002 3002 3001 3000 3000 3002 3004 3003 3002 3003 3004 3004 3005 3007 3008 3009 3009 3012 3015 3016 3017 3019 3020 3022 3025 3027 3029 3031 3034 3037 3039 3041 3043 3046 3048 3051 3054 3056 3056 3057 3059 3059 3060 3063 3065 3067 3069 3072 3075 3077 3078 3078 3079 3084 3091 3095 3096 3099 3101 3101 3103 3104 3104 3105 3107 3109 3111 3113 3114 3116 3119 3120
2987 2988 2990 2992 2993 2994 2996 2997 2997 2998 2998 2999 2999 2998 2999 3000 3001 3001 3001 3000 3000 3002 3004 3004 3003 3004 3004 3005 3005 3006 3008 3010 3010 3011 3013 3015 3016 3017 3019 3021 3024 3026 3028 3031 3034 3036 3037 3039 3041 3044 3045 3047 3048 3050 3050 3052 3055 3057 3058 3061 3064 3066 3068 3070 3072 3075 3077 3077 3078 3081 3086 3091 3095 3097 3098 3099 3100 3101 3103 3104 3106 3108 3110 3112 3114 3116 3117 3119
2990 2991 2992 2993 2995 2996 2997 2998 2998 2998 2999 2999 2998 2998 2999 2999 2999 3000 3000 3000 3000 3002 3003 3003 3003 3004 3004 3005 3005 3006 3008 3010 3011 3009 3009 3012 3015 3016 3018 3021 3023 3025 3028 3031 3034 3036 3037 3038 3040 3042 3044 3045 3047 3049 3051 3054 3055 3056 3057 3059 3062 3065 3067 3069 3071 3072 3074 3076 3077 3078 3080 3086 3091 3094 3095 3097 3098 3099 3101 3102 3104 3108 3110 3112 3113 3115 3116 3118
2992 2993 2994 2995 2996 2998 2998 2998 2999 2999 2999 2999 2998 2998 2999 2999 2998 2999 2999 3000 3001 3002 3002 3003 3003 3003 3004 3005 3005 3006 3008 3009 3010 3009 3008 3010 3014 3015 3017 3021 3023 3025 3028 3030 3032 3034 3036 3037 3040 3042 3045 3046 3048 3051 3053 3054 3054 3055 3057 3059 3061 3064 3066 3068 3069 3071 3073 3075 3075 3076 3077 3080 3085 3089 3091 3093 3095 3097 3099 3101 3105 3108 3109 3111 3112 3113 3115 3116
2994 2994 2996 2997 2997 2998 2999 2998 2998 2998 2999 2999 2999 2998 2999 2998 2999 2999 2999 3000 3001 3001 3002 3003 3003 3003 3004 3005 3006 3007 3008 3008 3009 3009 3008 3010 3013 3015 3017 3019 3022 3024 3027 3029 3031 3033 3035 3037 3039 3042 3044 3046 3048 3050 3051 3052 3053 3055 3057 3059 3061 3063 3064 3066 3067 3069 3071 3072 3072 3074 3076 3077 3081 3085 3088 3090 3093 3095 3098 3101 3105 3107 3108 3110 3111 3112 3114 3114
2996 2996 2996 2997 2998 2998 2999 2998 2998 2998 2998 2999 2999 2998 2998 2998 2999 3000 3000 3000 3001 3001 3002 3002 3003 3003 3004 3005 3006 3007 3008 3008 3009 3009 3007 3009 3012 3014 3016 3018 3021 3023 3025 3027 3029 3031 3034 3036 3038 3041 3043 3045 3047 3049 3049 3050 3052 3053 3055 3058 3060 3061 3062 3064 3065 3066 3068 3070 3071 3072 3075 3078 3080 3083 3086 3089 3092 3094 3097 3101 3104 3106 3107 3108 3110 3111 3112 3113
2997 2997 2997 2998 2998 2998 2998 2998 2998 2998 2998 2999 2998 2998 2998 2998 2998 2999 2999 2999 3000 3000 3001 3002 3003 3003 3003 3003 3004 3006 3008 3009 3009 3009 3008 3009 3012 3014 3016 3018 3019 3022 3024 3026 3027 3030 3033 3035 3038 3040 3043 3045 3047 3048 3049 3050 3050 3051 3053 3055 3057 3058 3059 3061 3063 3063 3065 3068 3070 3072 3075 3078 3081 3084 3086 3089 3091 3093 3096 3100 3104 3105 3106 3107 3109 3110 3111 3112
2998 2998 2998 2998 2999 2998 2998 2998 2998 2998 2998 2998 2997 2997 2997 2997 2997 2996 2997 2998 2998 2999 3000 3002 3002 3002 3003 3003 3004 3006 3008 3009 3009 3010 3010 3011 3013 3014 3016 3017 3019 3022 3024 3024 3025 3029 3032 3035 3037 3039 3042 3045 3047 3048 3050 3050 3050 3051 3052 3053 3054 3055 3056 3058 3061 3062 3064 3066 3070 3073 3075 3076 3079 3082 3085 3088 3090 3093 3096 3100 3103 3104 3105 3107 3108 3109 3111 3112
2999 2999 2999 2999 2999 2998 2997 2997 2997 2997 2997 2997 2997 2996 2996 2996 2995 2995 2995 2996 2997 2998 3000 3001 3002 3003 3004 3006 3007 3008 3008 3008 3009 3010 3010 3012 3014 3014 3015 3017 3018 3021 3023 3024 3025 3028 3031 3034 3037 3039 3042 3045 3047 3049 3050 3050 3050 3051 3052 3053 3054 3054 3055 3057 3060 3063 3065 3067 3070 3073 3074 3075 3077 3080 3083 3086 3090 3093 3096 3099 3101 3102 3104 3106 3107 3109 3111 3113